VE3KSR Weather Reports


Display with metric or nautical units.
time (UTC)temp
F
wind
direction
speed
MPH
gust
MPH
rain 1hr
in
rain 24hr
in
rain mn
in
humidity
%
barometer
mb
20260502235325 -45 0 0.0 0.0 5.64 0.00 0.00 55 1027.9
20260502234825 -52 0 0.0 0.0 5.64 0.00 0.00 54 1027.9
20260502234325 -34 0 0.0 0.0 5.64 0.00 0.00 54 1027.9
20260502233825 -41 0 0.0 0.0 5.64 0.00 0.00 54 1027.9
20260502233325 -31 0 0.0 0.0 5.64 0.00 0.00 54 1027.9
20260502232825 -42 0 0.0 0.0 5.64 0.00 0.00 54 1027.9
20260502232325 -43 0 0.0 0.0 5.64 0.00 0.00 55 1027.9
20260502231825 -45 0 0.0 0.0 5.64 0.00 0.00 54 1027.6
20260502231325 -37 0 0.0 0.0 5.64 0.00 0.00 53 1027.9
20260502230825 -38 0 0.0 0.0 5.64 0.00 0.00 56 1027.9
20260502230325 -36 0 0.0 0.0 5.64 0.00 0.00 57 1027.9
20260502225825 -36 0 0.0 0.0 5.64 0.00 0.00 53 1027.9
20260502225325 -31 0 0.0 0.0 5.64 0.00 0.00 57 1028.0
20260502224825 -35 0 0.0 0.0 5.64 0.00 0.00 60 1028.0
20260502224325 -43 0 0.0 0.0 5.64 0.00 0.00 59 1028.1
20260502223825 -39 0 0.0 0.0 5.64 0.00 0.00 59 1028.1
20260502223326 -38 0 0.0 0.0 5.64 0.00 0.00 58 1028.0
20260502222827 -40 0 0.0 0.0 5.64 0.00 0.00 60 1028.2
20260502222325 -37 0 0.0 0.0 5.64 0.00 0.00 57 1028.1
20260502221825 -41 0 0.0 0.0 5.64 0.00 0.00 59 1028.1
20260502221325 -36 0 0.0 0.0 5.64 0.00 0.00 59 1028.2
20260502220825 -40 0 0.0 0.0 5.64 0.00 0.00 60 1028.1
20260502220326 -40 0 0.0 0.0 5.64 0.00 0.00 60 1028.1
20260502215825 -40 0 0.0 0.0 5.64 0.00 0.00 60 1028.2
20260502215325 -37 0 0.0 0.0 5.64 0.00 0.00 62 1028.2
20260502214825 -32 0 0.0 0.0 5.64 0.00 0.00 63 1028.3
20260502214325 -37 0 0.0 0.0 5.64 0.00 0.00 64 1028.3
20260502213825 -37 304 0.0 3.0 5.64 0.00 0.00 62 1028.2
20260502213325 -33 0 0.0 0.0 5.64 0.00 0.00 65 1028.1
20260502212825 -31 0 0.0 0.0 5.64 0.00 0.00 65 1028.0
20260502212327 -41 0 0.0 0.0 5.64 0.00 0.00 64 1028.3
20260502211825 -45 0 0.0 0.0 5.64 0.00 0.00 66 1028.3
20260502211325 -51 0 0.0 0.0 5.64 0.00 0.00 69 1028.3
20260502210825 -36 0 0.0 0.0 5.64 0.00 0.00 67 1028.4
20260502210325 -38 0 0.0 0.0 5.64 0.00 0.00 65 1028.5
20260502205825 -38 0 0.0 0.0 5.64 0.00 0.00 68 1028.5
20260502205326 -30 0 0.0 0.0 5.64 0.00 0.00 69 1028.6
20260502204825 -30 0 0.0 0.0 5.64 0.00 0.00 69 1028.7
20260502204325 -26 0 0.0 0.0 5.64 0.00 0.00 67 1028.7
20260502203825 -22 0 0.0 0.0 5.64 0.00 0.00 68 1028.7
20260502203325 -27 0 0.0 0.0 5.64 0.00 0.00 71 1028.7
20260502202826 -28 0 0.0 0.0 5.64 0.00 0.00 70 1028.7
20260502202326 -27 0 0.0 0.0 5.64 0.00 0.00 69 1028.8
20260502201825 -24 0 0.0 0.0 5.64 0.00 0.00 71 1028.8
20260502201326 -23 0 0.0 0.0 5.64 0.00 0.00 71 1028.8
20260502200826 -24 352 1.0 7.0 5.64 0.00 0.00 71 1028.9
20260502200326 -20 0 0.0 0.0 5.64 0.00 0.00 71 1029.0
20260502195827 -21 0 0.0 0.0 5.64 0.00 0.00 71 1029.0
20260502195326 -22 0 0.0 0.0 5.64 0.00 0.00 74 1029.1
20260502194826 -23 0 0.0 0.0 5.64 0.00 0.00 71 1029.1
20260502194326 -23 0 0.0 0.0 5.64 0.00 0.00 71 1029.0
20260502193826 -28 0 0.0 0.0 5.64 0.00 0.00 71 1029.0
20260502193326 -30 0 0.0 0.0 5.64 0.00 0.00 73 1029.1
20260502192826 -33 0 0.0 0.0 5.64 0.00 0.00 72 1029.1
20260502192326 -27 0 0.0 0.0 5.64 0.00 0.00 71 1029.1
20260502191826 -32 0 0.0 0.0 5.64 0.00 0.00 70 1029.2
20260502191328 -31 0 0.0 0.0 5.64 0.00 0.00 69 1029.2
20260502190826 -30 352 0.0 3.0 5.64 0.00 0.00 68 1029.2
20260502190326 -29 352 0.0 1.0 5.64 0.00 0.00 69 1029.3
20260502185826 -31 0 0.0 0.0 5.64 0.00 0.00 68 1029.2
20260502185326 -31 0 0.0 0.0 5.64 0.00 0.00 71 1029.2
20260502184826 -29 0 0.0 0.0 5.64 0.00 0.00 71 1029.1
20260502184326 -30 0 0.0 0.0 5.64 0.00 0.00 73 1029.1
20260502183827 -29 0 0.0 0.0 5.64 0.00 0.00 69 1029.1
20260502183326 -24 0 0.0 0.0 5.64 0.00 0.00 71 1029.1
20260502182826 -22 0 0.0 0.0 5.64 0.00 0.00 71 1029.1
20260502182326 -25 0 0.0 0.0 5.64 0.00 0.00 71 1029.1
20260502181826 -23 0 0.0 0.0 5.64 0.00 0.00 71 1029.2
20260502181326 -24 0 0.0 0.0 5.64 0.00 0.00 70 1029.2
20260502180827 -25 0 0.0 0.0 5.64 0.00 0.00 69 1029.1
20260502180326 -28 0 0.0 0.0 5.64 0.00 0.00 70 1029.2
20260502170326 -36 0 0.0 0.0 5.64 0.00 0.00 72 1029.1
20260502164326 -44 0 0.0 0.0 5.64 0.00 0.00 73 1029.2
20260502163826 -48 0 0.0 0.0 5.64 0.00 0.00 72 1029.2
20260502163326 -51 359 0.0 2.0 5.64 0.00 0.00 72 1029.2
20260502162826 -52 0 0.0 0.0 5.64 0.00 0.00 74 1029.1
20260502162326 -51 0 0.0 0.0 5.64 0.00 0.00 73 1029.1
20260502161826 -55 0 0.0 0.0 5.64 0.00 0.00 76 1029.2
20260502161326 -54 0 0.0 0.0 5.64 0.00 0.00 76 1029.3
20260502160826 -55 0 0.0 0.0 5.64 0.00 0.00 76 1029.3
20260502160326 -54 0 0.0 0.0 5.64 0.00 0.00 76 1029.3
20260502152326 -55 0 0.0 0.0 5.64 0.00 0.00 84 1029.3
20260502151826 -55 0 0.0 0.0 5.64 0.00 0.00 86 1029.2
20260502151326 -44 0 0.0 0.0 5.64 0.00 0.00 88 1029.1
20260502150826 -55 295 1.0 6.0 5.64 0.00 0.00 87 1029.2
20260502150326 -55 0 0.0 0.0 5.64 0.00 0.00 86 1029.2
20260502130327 -55 328 0.0 3.0 5.64 0.00 0.00 91 1029.2
20260502123327 -55 359 0.0 3.0 5.64 0.00 0.00 93 1029.1
20260502122827 -55 336 1.0 10.0 5.64 0.00 0.00 94 1029.1
20260502122327 -55 0 0.0 0.0 5.64 0.00 0.00 93 1029.0
20260502121827 -55 0 0.0 0.0 5.64 0.00 0.00 93 1029.0
20260502121327 -55 0 0.0 0.0 5.64 0.00 0.00 93 1029.1
20260502120827 -55 0 0.0 0.0 5.64 0.00 0.00 94 1029.0
20260502120327 -55 0 0.0 0.0 5.64 0.00 0.00 93 1029.0
20260502115827 -55 0 0.0 0.0 5.64 0.00 0.00 93 1028.9
20260502115327 -55 0 0.0 0.0 5.64 0.00 0.00 93 1029.0
20260502114827 -55 0 0.0 0.0 5.64 0.00 0.00 93 1029.1
20260502114327 -55 0 0.0 0.0 5.64 0.00 0.00 93 1029.0
20260502113827 -55 0 0.0 0.0 5.64 0.00 0.00 94 1029.0
20260502113327 -55 0 0.0 0.0 5.64 0.00 0.00 94 1028.9
20260502112828 -55 0 0.0 0.0 5.64 0.00 0.00 93 1028.9
20260502112329 -55 0 0.0 0.0 5.64 0.00 0.00 93 1029.0
20260502111829 -55 0 0.0 0.0 5.64 0.00 0.00 93 1028.9
20260502111327 -55 0 0.0 0.0 5.64 0.00 0.00 93 1028.9
20260502110827 -55 0 0.0 0.0 5.64 0.00 0.00 92 1028.9
20260502110327 -43 0 0.0 0.0 5.64 0.00 0.00 92 1028.8
20260502105828 -45 0 0.0 0.0 5.64 0.00 0.00 92 1028.7
20260502105327 -37 0 0.0 0.0 5.64 0.00 0.00 92 1028.6
20260502104827 -37 0 0.0 0.0 5.64 0.00 0.00 92 1028.5
20260502104327 -38 0 0.0 0.0 5.64 0.00 0.00 93 1028.5
20260502103827 -38 0 0.0 0.0 5.64 0.00 0.00 93 1028.5
20260502103327 -38 0 0.0 0.0 5.64 0.00 0.00 93 1028.5
20260502102827 -38 0 0.0 0.0 5.64 0.00 0.00 92 1028.4
20260502102328 -39 0 0.0 0.0 5.64 0.00 0.00 92 1028.4
20260502101829 -36 0 0.0 0.0 5.64 0.00 0.00 92 1028.4
20260502101327 -35 0 0.0 0.0 5.64 0.00 0.00 92 1028.4
20260502100827 -28 0 0.0 0.0 5.64 0.00 0.00 92 1028.4
20260502100327 -29 0 0.0 0.0 5.64 0.00 0.00 92 1028.3
20260502091327 -39 0 0.0 0.0 5.64 0.00 0.00 92 1027.7
20260502090827 -40 0 0.0 0.0 5.64 0.00 0.00 92 1027.7
20260502090327 -33 0 0.0 0.0 5.64 0.00 0.00 92 1027.7
20260502071327 -19 0 0.0 0.0 5.64 0.00 0.00 92 1027.1
20260502070827 -21 0 0.0 0.0 5.64 0.00 0.00 91 1027.0
20260502070328 -20 0 0.0 0.0 5.64 0.00 0.00 91 1027.0
20260502065828 -23 0 0.0 0.0 5.64 0.00 0.00 92 1027.0
20260502065330 11 0 0.0 0.0 5.64 0.00 0.00 92 1027.1
20260502064828 -21 0 0.0 0.0 5.64 0.00 0.00 92 1027.1
20260502064327 -20 0 0.0 0.0 5.64 0.00 0.00 92 1027.1
20260502063828 -20 0 0.0 0.0 5.64 0.00 0.00 92 1027.2
20260502063328 -16 0 0.0 0.0 5.64 0.00 0.00 92 1027.2
20260502062827 -20 0 0.0 0.0 5.64 0.00 0.00 92 1027.3
20260502062328 -22 0 0.0 0.0 5.64 0.00 0.00 92 1027.1
20260502061828 -21 0 0.0 0.0 5.64 0.00 0.00 92 1027.0
20260502061328 -22 0 0.0 0.0 5.64 0.00 0.00 92 1027.1
20260502060828 -22 0 0.0 0.0 5.64 0.00 0.00 92 1027.2
20260502060328 -22 0 0.0 0.0 5.64 0.00 0.00 92 1027.2
20260502055828 -20 0 0.0 0.0 5.64 0.00 0.00 92 1027.2
20260502055328 -21 0 0.0 0.0 5.64 0.00 0.00 92 1027.2
20260502054828 -20 0 0.0 0.0 5.64 0.00 0.00 92 1027.2
20260502054328 -16 0 0.0 0.0 5.64 0.00 0.00 92 1027.3
20260502053828 -18 0 0.0 0.0 5.64 0.00 0.00 92 1027.3
20260502053328 -21 0 0.0 0.0 5.64 0.00 0.00 92 1027.3
20260502052829 -19 0 0.0 0.0 5.64 0.00 0.00 92 1027.2
20260502052330 -22 0 0.0 0.0 5.64 0.00 0.00 92 1027.3
20260502051828 -20 0 0.0 0.0 5.64 0.00 0.00 92 1027.2
20260502051328 -18 0 0.0 0.0 5.64 0.00 0.00 92 1027.1
20260502050828 -17 0 0.0 0.0 5.64 0.00 0.00 92 1027.1
20260502050328 -19 0 0.0 0.0 5.64 0.00 0.00 92 1027.1
20260502045828 -18 0 0.0 0.0 5.64 0.00 0.00 92 1027.0
20260502045328 -16 0 0.0 0.0 5.64 0.00 0.00 92 1027.0
20260502044828 -18 0 0.0 0.0 5.64 0.00 0.00 92 1026.9
20260502044328 -17 0 0.0 0.0 5.64 0.00 0.00 93 1026.9
20260502043828 -15 0 0.0 0.0 5.64 0.00 0.00 92 1026.8
20260502043328 -16 0 0.0 0.0 5.64 0.00 0.00 93 1026.8
20260502042828 -16 0 0.0 0.0 5.64 0.00 0.00 93 1026.7
20260502042328 -15 0 0.0 0.0 5.64 0.00 0.00 92 1026.5
20260502041828 -14 0 0.0 0.0 5.64 0.00 0.00 92 1026.5
20260502041328 -14 0 0.0 0.0 5.64 0.00 0.00 92 1026.4
20260502040828 -15 0 0.0 0.0 5.64 0.00 0.00 92 1026.4
20260502040328 -16 0 0.0 0.0 5.64 0.00 0.00 92 1026.4
20260502035828 -15 0 0.0 0.0 5.64 0.00 0.00 91 1026.4
20260502035328 -16 0 0.0 0.0 5.64 0.00 0.00 91 1026.4
20260502034828 -14 0 0.0 0.0 5.64 0.00 0.00 91 1026.5
20260502034328 -15 0 0.0 0.0 5.64 0.00 0.00 91 1026.5
20260502033828 -16 0 0.0 0.0 5.64 0.00 0.00 90 1026.5
20260502033328 -14 0 0.0 0.0 5.64 0.00 0.00 90 1026.4
20260502032829 -13 0 0.0 0.0 5.64 0.00 0.00 90 1026.4
20260502032328 -14 0 0.0 0.0 5.64 0.00 0.00 89 1026.4
20260502031828 -14 0 0.0 0.0 5.64 0.00 0.00 88 1026.4
20260502031328 -13 0 0.0 0.0 5.64 0.00 0.00 88 1026.4
20260502030828 -8 0 0.0 0.0 5.64 0.00 0.00 87 1026.4
20260502030328 -10 0 0.0 0.0 5.64 0.00 0.00 86 1026.3
20260502025828 -10 0 0.0 0.0 5.64 0.00 0.00 85 1026.2
20260502025328 -9 0 0.0 0.0 5.64 0.00 0.00 85 1026.2
20260502024828 -10 0 0.0 0.0 5.64 0.00 0.00 85 1026.2
20260502024328 -9 0 0.0 0.0 5.64 0.00 0.00 84 1026.1
20260502023828 -11 0 0.0 0.0 5.64 0.00 0.00 84 1026.1
20260502023328 -11 0 0.0 0.0 5.64 0.00 0.00 84 1026.2
20260502022828 -11 0 0.0 0.0 5.64 0.00 0.00 83 1026.1
20260502022328 -8 0 0.0 0.0 5.64 0.00 0.00 83 1026.1
20260502021828 -7 0 0.0 0.0 5.64 0.00 0.00 82 1026.0
20260502021328 -6 0 0.0 0.0 5.64 0.00 0.00 82 1026.0
20260502020828 -1 0 0.0 0.0 5.64 0.00 0.00 81 1026.0
20260502020328 0 0 0.0 0.0 5.64 0.00 0.00 81 1026.0
20260502015828 2 0 0.0 0.0 5.64 0.00 0.00 81 1026.0
20260502015328 1 0 0.0 0.0 5.64 0.00 0.00 80 1026.0
20260502014828 1 0 0.0 0.0 5.64 0.00 0.00 80 1025.9
20260502014328 1 0 0.0 0.0 5.64 0.00 0.00 79 1026.0
20260502013828 2 0 0.0 0.0 5.64 0.00 0.00 79 1025.9
20260502013328 1 0 0.0 0.0 5.64 0.00 0.00 79 1025.8
20260502012828 3 0 0.0 0.0 5.64 0.00 0.00 79 1025.7
20260502012328 3 0 0.0 0.0 5.64 0.00 0.00 78 1025.7
20260502011828 3 0 0.0 0.0 5.64 0.00 0.00 77 1025.6
20260502011328 3 0 0.0 0.0 5.64 0.00 0.00 77 1025.5
20260502010828 5 359 0.0 2.0 5.64 0.00 0.00 77 1025.5
20260502010328 -3 0 0.0 0.0 5.64 0.00 0.00 76 1025.4
20260502005828 -4 359 0.0 3.0 5.64 0.00 0.00 75 1025.3
20260502005328 -3 0 0.0 0.0 5.64 0.00 0.00 75 1025.2
20260502004829 5 0 0.0 0.0 5.64 0.00 0.00 76 1025.2
20260502004328 6 359 0.0 2.0 5.64 0.00 0.00 75 1025.0
20260502003828 3 0 0.0 0.0 5.64 0.00 0.00 75 1025.2
20260502003328 3 343 1.0 3.0 5.64 0.00 0.00 76 1024.9
20260502002828 3 0 0.0 0.0 5.64 0.00 0.00 75 1025.0
20260502002328 2 0 0.0 0.0 5.64 0.00 0.00 74 1024.8
20260502001828 3 0 0.0 0.0 5.64 0.00 0.00 74 1024.7
20260502001328 6 359 0.0 3.0 5.64 0.00 0.00 73 1024.7
20260502000828 9 359 0.0 3.0 5.64 0.00 0.00 73 1024.6
20260502000328 27 0 0.0 0.0 5.64 0.00 0.00 71 1024.6
20260501235828 24 354 1.0 3.0 5.64 0.00 0.00 70 1024.6